Tracking 29892 objects as of 21-Nov-2024
HD Live streaming from Space Station
objects crossing your sky now

FLOCK 4Y 30

Track FLOCK 4Y 30 now!
10-day predictions
FLOCK 4Y 30 is classified as:


NORAD ID: 55025
Int'l Code: 2023-001S
Perigee: 448.0 km
Apogee: 458.3 km
Inclination: 97.4 °
Period: 93.5 minutes
Semi major axis: 6824 km
RCS: Unknown
Launch date: January 3, 2023
Source: United States (US)
Launch site: AIR FORCE EASTERN TEST RANGE (AFETR)
Your satellite tracking list
Your tracking list is empty




NASA's NSSDC Master Catalog

Two Line Element Set (TLE):
1 55025U 23001S   24325.40569683  .00039778  00000-0  99360-3 0  9994
2 55025  97.4063  28.1867 0007528 337.0324  23.0585 15.40022259104721
Source of the keplerian elements: AFSPC